| time (UTC) | temp F | wind direction | speed MPH | gust MPH | rain 1hr in | rain 24hr in | rain mn in | humidity % | barometer mb |
| 20260509164554 | 83 | 213 | 1.0 | 6.0 | 0.00 | 0.00 | 0.00 | 72 | 1011.0 |
| 20260509164053 | 82 | 203 | 0.0 | 6.0 | 0.00 | 0.00 | 0.00 | 75 | 1011.1 |
| 20260509163553 | 82 | 198 | 1.0 | 5.0 | 0.00 | 0.00 | 0.00 | 75 | 1011.1 |
| 20260509163101 | 82 | 48 | 1.0 | 4.0 | 0.00 | 0.00 | 0.00 | 77 | 1011.2 |
| 20260509162553 | 80 | 230 | 0.0 | 4.0 | 0.00 | 0.00 | 0.00 | 76 | 1011.3 |
| 20260509162053 | 81 | 306 | 1.0 | 4.0 | 0.00 | 0.00 | 0.00 | 75 | 1011.3 |
| 20260509161553 | 80 | 207 | 0.0 | 4.0 | 0.00 | 0.00 | 0.00 | 79 | 1011.2 |
| 20260509161052 | 80 | 210 | 2.0 | 4.0 | 0.00 | 0.00 | 0.00 | 79 | 1011.1 |
| 20260509160553 | 79 | 223 | 1.0 | 4.0 | 0.00 | 0.00 | 0.00 | 81 | 1011.1 |
| 20260509160052 | 78 | 0 | 1.0 | 9.0 | 0.00 | 0.00 | 0.00 | 83 | 1011.0 |
| 20260509155552 | 78 | 285 | 1.0 | 9.0 | 0.00 | 0.00 | 0.00 | 85 | 1011.1 |
| 20260509155052 | 77 | 206 | 3.0 | 12.0 | 0.00 | 0.00 | 0.00 | 88 | 1011.0 |
| 20260509154556 | 76 | 215 | 3.0 | 12.0 | 0.00 | 0.00 | 0.00 | 90 | 1011.1 |
| 20260509154053 | 76 | 200 | 4.0 | 12.0 | 0.00 | 0.00 | 0.00 | 93 | 1011.1 |
| 20260509153552 | 74 | 205 | 3.0 | 8.0 | 0.00 | 0.00 | 0.00 | 94 | 1011.5 |
| 20260509153056 | 74 | 196 | 1.0 | 6.0 | 0.00 | 0.00 | 0.00 | 95 | 1011.6 |
| 20260509152552 | 74 | 196 | 1.0 | 6.0 | 0.00 | 0.00 | 0.00 | 95 | 1011.5 |
| 20260509152053 | 73 | 0 | 1.0 | 4.0 | 0.00 | 0.00 | 0.00 | 96 | 1011.6 |
| 20260509151559 | 72 | 0 | 1.0 | 5.0 | 0.00 | 0.00 | 0.00 | 96 | 1011.8 |
| 20260509151052 | 72 | 165 | 0.0 | 5.0 | 0.00 | 0.00 | 0.00 | 96 | 1011.9 |
| 20260509150552 | 72 | 0 | 1.0 | 5.0 | 0.00 | 0.00 | 0.00 | 96 | 1011.8 |
| 20260509150052 | 73 | 0 | 0.0 | 2.0 | 0.00 | 0.00 | 0.00 | 96 | 1011.7 |
| 20260509145553 | 72 | 93 | 0.0 | 2.0 | 0.00 | 0.00 | 0.00 | 96 | 1011.8 |
| 20260509145054 | 72 | 0 | 0.0 | 2.0 | 0.00 | 0.00 | 0.00 | 96 | 1011.9 |
| 20260509144557 | 72 | 0 | 0.0 | 1.0 | 0.00 | 0.00 | 0.00 | 96 | 1011.8 |
| 20260509144052 | 72 | 0 | 0.0 | 1.0 | 0.00 | 0.00 | 0.00 | 96 | 1011.9 |
| 20260509143550 | 72 | 0 | 0.0 | 1.0 | 0.00 | 0.00 | 0.00 | 96 | 1011.8 |
| 20260509143059 | 72 | 93 | 0.0 | 3.0 | 0.00 | 0.00 | 0.00 | 96 | 1011.8 |
| 20260509142552 | 72 | 0 | 0.0 | 3.0 | 0.00 | 0.00 | 0.00 | 96 | 1011.9 |
| 20260509142052 | 71 | 93 | 0.0 | 3.0 | 0.00 | 0.00 | 0.00 | 96 | 1011.9 |
| 20260509141600 | 71 | 0 | 0.0 | 2.0 | 0.00 | 0.00 | 0.00 | 96 | 1011.7 |
| 20260509141054 | 71 | 0 | 0.0 | 2.0 | 0.00 | 0.00 | 0.00 | 96 | 1011.5 |
| 20260509140552 | 71 | 71 | 0.0 | 2.0 | 0.00 | 0.00 | 0.00 | 96 | 1011.3 |
| 20260509135552 | 71 | 71 | 0.0 | 3.0 | 0.00 | 0.00 | 0.00 | 96 | 1010.8 |
| 20260509135052 | 71 | 0 | 0.0 | 3.0 | 0.00 | 0.00 | 0.00 | 96 | 1010.6 |
| 20260509134551 | 71 | 0 | 1.0 | 3.0 | 0.00 | 0.00 | 0.00 | 96 | 1010.6 |
| 20260509134052 | 71 | 0 | 0.0 | 0.0 | 0.00 | 0.00 | 0.00 | 96 | 1010.6 |
| 20260509133552 | 71 | 0 | 0.0 | 0.0 | 0.00 | 0.00 | 0.00 | 96 | 1010.7 |
| 20260509133053 | 71 | 0 | 0.0 | 0.0 | 0.00 | 0.00 | 0.00 | 96 | 1010.9 |
| 20260509132554 | 71 | 0 | 0.0 | 0.0 | 0.00 | 0.00 | 0.00 | 96 | 1010.8 |
| 20260509132051 | 71 | 0 | 0.0 | 0.0 | 0.00 | 0.00 | 0.00 | 96 | 1010.9 |
| 20260509131554 | 71 | 0 | 0.0 | 0.0 | 0.00 | 0.00 | 0.00 | 96 | 1011.0 |
| 20260509131052 | 71 | 0 | 0.0 | 0.0 | 0.00 | 0.00 | 0.00 | 96 | 1011.1 |
| 20260509130552 | 71 | 0 | 0.0 | 2.0 | 0.00 | 0.00 | 0.00 | 96 | 1010.9 |
| 20260509130055 | 71 | 0 | 0.0 | 2.0 | 0.00 | 0.00 | 0.00 | 96 | 1010.8 |
| 20260509125552 | 71 | 72 | 0.0 | 2.0 | 0.00 | 0.00 | 0.00 | 96 | 1010.8 |
| 20260509125053 | 71 | 68 | 0.0 | 2.0 | 0.00 | 0.00 | 0.00 | 96 | 1010.8 |
| 20260509124554 | 71 | 0 | 0.0 | 3.0 | 0.00 | 0.00 | 0.00 | 96 | 1010.8 |
| 20260509124052 | 71 | 0 | 0.0 | 3.0 | 0.00 | 0.00 | 0.00 | 96 | 1011.0 |
| 20260509123555 | 71 | 0 | 0.0 | 5.0 | 0.00 | 0.00 | 0.00 | 96 | 1011.1 |
| 20260509123114 | 71 | 0 | 0.0 | 5.0 | 0.00 | 0.00 | 0.00 | 96 | 1010.9 |
| 20260509122553 | 71 | 75 | 0.0 | 5.0 | 0.00 | 0.00 | 0.00 | 96 | 1010.9 |
| 20260509122052 | 71 | 0 | 0.0 | 5.0 | 0.00 | 0.00 | 0.00 | 96 | 1010.8 |
| 20260509121558 | 71 | 55 | 1.0 | 5.0 | 0.00 | 0.00 | 0.00 | 96 | 1010.8 |
| 20260509121053 | 71 | 51 | 1.0 | 5.0 | 0.00 | 0.00 | 0.00 | 96 | 1010.9 |
| 20260509120551 | 71 | 0 | 1.0 | 4.0 | 0.00 | 0.00 | 0.00 | 96 | 1011.1 |
| 20260509120052 | 71 | 63 | 1.0 | 8.0 | 0.00 | 0.00 | 0.00 | 96 | 1011.1 |
| 20260509115552 | 71 | 35 | 2.0 | 9.0 | 0.00 | 0.00 | 0.00 | 95 | 1011.1 |
| 20260509115052 | 71 | 49 | 0.0 | 9.0 | 0.00 | 0.00 | 0.00 | 95 | 1011.1 |
| 20260509114551 | 71 | 0 | 1.0 | 9.0 | 0.00 | 0.00 | 0.00 | 95 | 1011.1 |
| 20260509114051 | 71 | 25 | 1.0 | 4.0 | 0.00 | 0.00 | 0.00 | 95 | 1010.9 |
| 20260509113554 | 71 | 0 | 0.0 | 4.0 | 0.00 | 0.00 | 0.00 | 95 | 1010.8 |
| 20260509113052 | 71 | 53 | 0.0 | 4.0 | 0.00 | 0.00 | 0.00 | 95 | 1010.8 |
| 20260509112549 | 71 | 0 | 0.0 | 4.0 | 0.00 | 0.00 | 0.00 | 95 | 1010.6 |
| 20260509112052 | 71 | 55 | 0.0 | 4.0 | 0.00 | 0.00 | 0.00 | 95 | 1010.4 |
| 20260509111555 | 71 | 0 | 0.0 | 0.0 | 0.00 | 0.00 | 0.00 | 95 | 1010.2 |
| 20260509111119 | 71 | 0 | 0.0 | 1.0 | 0.00 | 0.00 | 0.00 | 95 | 1010.4 |
| 20260509110553 | 71 | 0 | 0.0 | 2.0 | 0.00 | 0.00 | 0.00 | 95 | 1010.3 |
| 20260509110053 | 71 | 0 | 0.0 | 2.0 | 0.00 | 0.00 | 0.00 | 95 | 1010.2 |
| 20260509105553 | 71 | 0 | 0.0 | 2.0 | 0.00 | 0.00 | 0.00 | 95 | 1010.1 |
| 20260509105055 | 71 | 0 | 0.0 | 2.0 | 0.00 | 0.00 | 0.00 | 95 | 1010.3 |
| 20260509104553 | 71 | 0 | 0.0 | 2.0 | 0.00 | 0.00 | 0.00 | 95 | 1010.4 |
| 20260509104054 | 71 | 0 | 0.0 | 2.0 | 0.00 | 0.00 | 0.00 | 95 | 1010.3 |
| 20260509103551 | 71 | 0 | 0.0 | 3.0 | 0.00 | 0.00 | 0.00 | 95 | 1010.3 |
| 20260509103102 | 71 | 0 | 0.0 | 3.0 | 0.00 | 0.00 | 0.00 | 95 | 1010.2 |
| 20260509102554 | 71 | 63 | 0.0 | 2.0 | 0.00 | 0.00 | 0.00 | 95 | 1010.3 |
| 20260509102054 | 72 | 0 | 0.0 | 3.0 | 0.00 | 0.00 | 0.00 | 95 | 1010.4 |
| 20260509101553 | 72 | 0 | 0.0 | 3.0 | 0.00 | 0.00 | 0.00 | 95 | 1010.4 |
| 20260509101054 | 72 | 0 | 0.0 | 4.0 | 0.00 | 0.00 | 0.00 | 95 | 1010.2 |
| 20260509100554 | 72 | 68 | 1.0 | 4.0 | 0.00 | 0.00 | 0.00 | 95 | 1010.4 |
| 20260509100058 | 72 | 74 | 1.0 | 4.0 | 0.00 | 0.00 | 0.00 | 95 | 1010.2 |
| 20260509095554 | 72 | 0 | 0.0 | 4.0 | 0.00 | 0.00 | 0.00 | 95 | 1010.2 |
| 20260509095054 | 72 | 0 | 0.0 | 0.0 | 0.00 | 0.00 | 0.00 | 95 | 1009.8 |
| 20260509094555 | 72 | 0 | 0.0 | 0.0 | 0.00 | 0.00 | 0.00 | 95 | 1009.9 |
| 20260509094055 | 72 | 0 | 0.0 | 0.0 | 0.00 | 0.00 | 0.00 | 95 | 1009.6 |
| 20260509093554 | 72 | 0 | 0.0 | 0.0 | 0.00 | 0.00 | 0.00 | 95 | 1009.5 |
| 20260509093055 | 72 | 0 | 0.0 | 0.0 | 0.00 | 0.00 | 0.00 | 95 | 1009.3 |
| 20260509092557 | 72 | 0 | 0.0 | 0.0 | 0.00 | 0.00 | 0.00 | 95 | 1009.2 |
| 20260509092054 | 72 | 0 | 0.0 | 0.0 | 0.00 | 0.00 | 0.00 | 95 | 1009.1 |
| 20260509091554 | 72 | 0 | 0.0 | 0.0 | 0.00 | 0.00 | 0.00 | 95 | 1009.3 |
| 20260509091053 | 72 | 0 | 0.0 | 0.0 | 0.00 | 0.00 | 0.00 | 95 | 1009.4 |
| 20260509090554 | 72 | 0 | 0.0 | 0.0 | 0.00 | 0.00 | 0.00 | 94 | 1009.4 |
| 20260509090056 | 72 | 0 | 0.0 | 0.0 | 0.00 | 0.00 | 0.00 | 94 | 1009.5 |
| 20260509085554 | 72 | 0 | 0.0 | 0.0 | 0.00 | 0.00 | 0.00 | 94 | 1009.5 |
| 20260509085054 | 72 | 0 | 0.0 | 0.0 | 0.00 | 0.00 | 0.00 | 94 | 1009.5 |
| 20260509084557 | 72 | 0 | 0.0 | 0.0 | 0.00 | 0.00 | 0.00 | 94 | 1009.5 |
| 20260509084057 | 72 | 0 | 0.0 | 0.0 | 0.00 | 0.00 | 0.00 | 94 | 1009.5 |
| 20260509083553 | 72 | 0 | 0.0 | 1.0 | 0.00 | 0.00 | 0.00 | 94 | 1009.5 |
| 20260509083059 | 72 | 0 | 0.0 | 3.0 | 0.00 | 0.00 | 0.00 | 94 | 1009.6 |
| 20260509082554 | 72 | 0 | 0.0 | 4.0 | 0.00 | 0.00 | 0.00 | 94 | 1009.6 |
| 20260509082054 | 72 | 0 | 0.0 | 4.0 | 0.00 | 0.00 | 0.00 | 94 | 1009.6 |
| 20260509081555 | 72 | 0 | 0.0 | 6.0 | 0.00 | 0.00 | 0.00 | 94 | 1009.6 |
| 20260509081055 | 72 | 204 | 0.0 | 6.0 | 0.00 | 0.00 | 0.00 | 94 | 1009.8 |
| 20260509080554 | 72 | 167 | 2.0 | 8.0 | 0.00 | 0.00 | 0.00 | 94 | 1009.9 |
| 20260509075554 | 72 | 153 | 2.0 | 6.0 | 0.00 | 0.00 | 0.00 | 94 | 1009.6 |
| 20260509075053 | 72 | 0 | 0.0 | 4.0 | 0.00 | 0.00 | 0.00 | 94 | 1009.4 |
| 20260509074604 | 72 | 0 | 0.0 | 5.0 | 0.00 | 0.00 | 0.00 | 94 | 1009.6 |
| 20260509074054 | 72 | 0 | 0.0 | 5.0 | 0.00 | 0.00 | 0.00 | 94 | 1009.5 |
| 20260509073557 | 72 | 168 | 1.0 | 5.0 | 0.00 | 0.00 | 0.00 | 94 | 1009.6 |
| 20260509073053 | 72 | 127 | 1.0 | 6.0 | 0.00 | 0.00 | 0.00 | 94 | 1009.6 |
| 20260509072556 | 72 | 194 | 1.0 | 6.0 | 0.00 | 0.00 | 0.00 | 94 | 1009.6 |
| 20260509072053 | 72 | 117 | 1.0 | 5.0 | 0.00 | 0.00 | 0.00 | 94 | 1009.5 |
| 20260509071609 | 72 | 163 | 0.0 | 6.0 | 0.00 | 0.00 | 0.00 | 94 | 1009.4 |
| 20260509071055 | 72 | 131 | 0.0 | 6.0 | 0.00 | 0.00 | 0.00 | 94 | 1009.5 |
| 20260509070554 | 72 | 199 | 1.0 | 4.0 | 0.00 | 0.00 | 0.00 | 94 | 1009.6 |
| 20260509070055 | 72 | 128 | 0.0 | 4.0 | 0.00 | 0.00 | 0.00 | 94 | 1009.8 |
| 20260509065554 | 72 | 121 | 0.0 | 5.0 | 0.00 | 0.00 | 0.00 | 93 | 1009.7 |
| 20260509065054 | 72 | 0 | 1.0 | 5.0 | 0.00 | 0.00 | 0.00 | 93 | 1009.7 |
| 20260509064558 | 72 | 101 | 0.0 | 5.0 | 0.00 | 0.00 | 0.00 | 93 | 1009.8 |
| 20260509064054 | 72 | 167 | 0.0 | 4.0 | 0.00 | 0.00 | 0.00 | 93 | 1009.9 |
| 20260509063551 | 72 | 162 | 0.0 | 5.0 | 0.00 | 0.00 | 0.00 | 93 | 1010.1 |
| 20260509063052 | 72 | 162 | 0.0 | 5.0 | 0.00 | 0.00 | 0.00 | 93 | 1010.0 |
| 20260509062554 | 72 | 159 | 1.0 | 5.0 | 0.00 | 0.00 | 0.00 | 93 | 1009.9 |
| 20260509062054 | 72 | 167 | 0.0 | 4.0 | 0.00 | 0.00 | 0.00 | 93 | 1009.9 |
| 20260509061559 | 72 | 0 | 0.0 | 4.0 | 0.00 | 0.00 | 0.00 | 93 | 1010.1 |
| 20260509061054 | 72 | 133 | 1.0 | 4.0 | 0.00 | 0.00 | 0.00 | 93 | 1010.1 |
| 20260509060554 | 72 | 176 | 0.0 | 4.0 | 0.00 | 0.00 | 0.00 | 93 | 1010.2 |
| 20260509060101 | 72 | 167 | 1.0 | 4.0 | 0.00 | 0.00 | 0.00 | 93 | 1010.2 |
| 20260509055553 | 72 | 0 | 0.0 | 4.0 | 0.00 | 0.00 | 0.00 | 93 | 1010.0 |
| 20260509055055 | 72 | 0 | 0.0 | 7.0 | 0.00 | 0.00 | 0.00 | 93 | 1010.1 |
| 20260509054608 | 72 | 0 | 1.0 | 7.0 | 0.00 | 0.00 | 0.00 | 93 | 1010.4 |
| 20260509054053 | 72 | 190 | 0.0 | 3.0 | 0.00 | 0.00 | 0.00 | 93 | 1010.5 |
| 20260509053555 | 72 | 0 | 1.0 | 3.0 | 0.00 | 0.00 | 0.00 | 93 | 1010.4 |
| 20260509053053 | 72 | 182 | 1.0 | 7.0 | 0.00 | 0.00 | 0.00 | 93 | 1010.6 |
| 20260509052555 | 72 | 0 | 1.0 | 8.0 | 0.00 | 0.00 | 0.00 | 93 | 1010.7 |
| 20260509052058 | 72 | 189 | 1.0 | 8.0 | 0.00 | 0.00 | 0.00 | 93 | 1010.9 |
| 20260509051555 | 72 | 177 | 0.0 | 6.0 | 0.00 | 0.00 | 0.00 | 93 | 1010.8 |
| 20260509051057 | 72 | 176 | 0.0 | 5.0 | 0.00 | 0.00 | 0.00 | 93 | 1010.9 |
| 20260509050554 | 72 | 161 | 0.0 | 5.0 | 0.00 | 0.00 | 0.00 | 93 | 1010.8 |
| 20260509050057 | 72 | 162 | 1.0 | 5.0 | 0.00 | 0.00 | 0.00 | 93 | 1010.6 |
| 20260509045554 | 72 | 0 | 1.0 | 5.0 | 0.00 | 0.00 | 0.00 | 93 | 1010.5 |
| 20260509045054 | 72 | 0 | 1.0 | 5.0 | 0.00 | 0.00 | 0.00 | 92 | 1010.4 |
| 20260509044557 | 72 | 171 | 1.0 | 6.0 | 0.00 | 0.00 | 0.00 | 92 | 1010.6 |
| 20260509044053 | 72 | 173 | 1.0 | 6.0 | 0.00 | 0.00 | 0.00 | 92 | 1010.6 |
| 20260509043553 | 72 | 130 | 1.0 | 4.0 | 0.00 | 0.00 | 0.00 | 92 | 1010.7 |
| 20260509043101 | 71 | 0 | 0.0 | 6.0 | 0.00 | 0.00 | 0.00 | 92 | 1010.4 |
| 20260509042554 | 71 | 0 | 0.0 | 6.0 | 0.00 | 0.00 | 0.00 | 92 | 1010.2 |
| 20260509042054 | 71 | 116 | 1.0 | 6.0 | 0.00 | 0.00 | 0.00 | 92 | 1010.2 |
| 20260509041555 | 71 | 119 | 0.0 | 6.0 | 0.00 | 0.00 | 0.00 | 92 | 1010.0 |
| 20260509041054 | 71 | 0 | 0.0 | 3.0 | 0.00 | 0.00 | 0.00 | 92 | 1009.9 |
| 20260509040555 | 71 | 0 | 0.0 | 2.0 | 0.00 | 0.00 | 0.00 | 92 | 1010.0 |
| 20260509040054 | 71 | 0 | 0.0 | 2.0 | 0.00 | 0.00 | 0.00 | 92 | 1010.0 |
| 20260509035553 | 71 | 0 | 0.0 | 2.0 | 0.00 | 0.00 | 0.00 | 91 | 1009.9 |
| 20260509035053 | 71 | 0 | 0.0 | 3.0 | 0.00 | 0.00 | 0.00 | 91 | 1009.9 |
| 20260509034554 | 71 | 107 | 0.0 | 3.0 | 0.00 | 0.00 | 0.00 | 91 | 1009.7 |
| 20260509034056 | 71 | 110 | 0.0 | 3.0 | 0.00 | 0.00 | 0.00 | 91 | 1009.6 |
| 20260509033554 | 71 | 0 | 0.0 | 4.0 | 0.00 | 0.00 | 0.00 | 91 | 1009.6 |
| 20260509033052 | 71 | 0 | 0.0 | 4.0 | 0.00 | 0.00 | 0.00 | 91 | 1009.7 |
| 20260509032554 | 71 | 0 | 0.0 | 3.0 | 0.00 | 0.00 | 0.00 | 90 | 1009.7 |
| 20260509032057 | 71 | 0 | 0.0 | 0.0 | 0.00 | 0.00 | 0.00 | 90 | 1009.7 |
| 20260509031617 | 72 | 0 | 0.0 | 0.0 | 0.00 | 0.00 | 0.00 | 90 | 1009.8 |
| 20260509031054 | 72 | 0 | 0.0 | 0.0 | 0.00 | 0.00 | 0.00 | 90 | 1009.9 |
| 20260509030554 | 72 | 0 | 0.0 | 0.0 | 0.00 | 0.00 | 0.00 | 90 | 1009.7 |
| 20260509030054 | 72 | 0 | 0.0 | 1.0 | 0.00 | 0.00 | 0.00 | 90 | 1009.8 |
| 20260509025555 | 72 | 0 | 0.0 | 1.0 | 0.00 | 0.00 | 0.00 | 89 | 1009.8 |
| 20260509025053 | 72 | 0 | 0.0 | 1.0 | 0.00 | 0.00 | 0.00 | 89 | 1009.7 |
| 20260509024553 | 72 | 0 | 0.0 | 1.0 | 0.00 | 0.00 | 0.00 | 89 | 1009.7 |
| 20260509024054 | 72 | 0 | 0.0 | 3.0 | 0.00 | 0.00 | 0.00 | 89 | 1009.7 |
| 20260509023554 | 72 | 0 | 0.0 | 3.0 | 0.00 | 0.00 | 0.00 | 89 | 1009.6 |
| 20260509023058 | 73 | 0 | 0.0 | 2.0 | 0.00 | 0.00 | 0.00 | 89 | 1009.6 |
| 20260509022553 | 73 | 0 | 0.0 | 2.0 | 0.00 | 0.00 | 0.00 | 88 | 1009.5 |
| 20260509022053 | 73 | 121 | 0.0 | 4.0 | 0.00 | 0.00 | 0.00 | 88 | 1009.4 |
| 20260509021553 | 73 | 121 | 1.0 | 4.0 | 0.00 | 0.00 | 0.00 | 88 | 1009.3 |
| 20260509021052 | 73 | 115 | 0.0 | 2.0 | 0.00 | 0.00 | 0.00 | 88 | 1009.3 |
| 20260509020555 | 73 | 115 | 0.0 | 2.0 | 0.00 | 0.00 | 0.00 | 88 | 1009.3 |
| 20260509020055 | 73 | 117 | 0.0 | 2.0 | 0.00 | 0.00 | 0.00 | 88 | 1009.1 |
| 20260509015553 | 73 | 117 | 0.0 | 2.0 | 0.00 | 0.00 | 0.00 | 88 | 1008.9 |
| 20260509015053 | 73 | 0 | 0.0 | 2.0 | 0.00 | 0.00 | 0.00 | 88 | 1008.8 |
| 20260509014553 | 73 | 0 | 0.0 | 2.0 | 0.00 | 0.00 | 0.00 | 87 | 1008.8 |
| 20260509014052 | 73 | 0 | 0.0 | 2.0 | 0.00 | 0.00 | 0.00 | 87 | 1008.7 |
| 20260509013552 | 73 | 0 | 0.0 | 2.0 | 0.00 | 0.00 | 0.00 | 87 | 1008.5 |
| 20260509013106 | 73 | 0 | 0.0 | 2.0 | 0.00 | 0.00 | 0.00 | 87 | 1008.5 |
| 20260509012554 | 73 | 0 | 0.0 | 3.0 | 0.00 | 0.00 | 0.00 | 86 | 1008.7 |
| 20260509012052 | 73 | 0 | 0.0 | 3.0 | 0.00 | 0.00 | 0.00 | 86 | 1008.6 |
| 20260509011556 | 74 | 80 | 0.0 | 3.0 | 0.00 | 0.00 | 0.00 | 86 | 1008.7 |
| 20260509011053 | 74 | 79 | 0.0 | 3.0 | 0.00 | 0.00 | 0.00 | 86 | 1008.5 |
| 20260509010553 | 74 | 0 | 0.0 | 4.0 | 0.00 | 0.00 | 0.00 | 86 | 1008.4 |
| 20260509010058 | 74 | 0 | 0.0 | 4.0 | 0.00 | 0.00 | 0.00 | 85 | 1008.4 |
| 20260509005553 | 74 | 80 | 0.0 | 4.0 | 0.00 | 0.00 | 0.00 | 85 | 1008.4 |
| 20260509005053 | 74 | 0 | 0.0 | 2.0 | 0.00 | 0.00 | 0.00 | 85 | 1008.5 |
| 20260509004558 | 74 | 0 | 0.0 | 4.0 | 0.00 | 0.00 | 0.00 | 84 | 1008.4 |
| 20260509004055 | 74 | 0 | 0.0 | 4.0 | 0.00 | 0.00 | 0.00 | 84 | 1008.5 |
| 20260509003553 | 74 | 76 | 1.0 | 4.0 | 0.00 | 0.00 | 0.00 | 84 | 1008.5 |
| 20260509003054 | 74 | 76 | 0.0 | 2.0 | 0.00 | 0.00 | 0.00 | 84 | 1008.5 |
| 20260509002557 | 74 | 0 | 0.0 | 1.0 | 0.00 | 0.00 | 0.00 | 84 | 1008.5 |
| 20260509002052 | 75 | 0 | 0.0 | 3.0 | 0.00 | 0.00 | 0.00 | 83 | 1008.4 |
| 20260509001557 | 75 | 0 | 0.0 | 3.0 | 0.00 | 0.00 | 0.00 | 84 | 1008.4 |
| 20260509001053 | 75 | 0 | 0.0 | 3.0 | 0.00 | 0.00 | 0.00 | 83 | 1008.5 |
| 20260509000553 | 75 | 5 | 0.0 | 2.0 | 0.00 | 0.00 | 0.00 | 83 | 1008.5 |
| 20260509000108 | 75 | 0 | 0.0 | 2.0 | 0.00 | 0.00 | 0.00 | 83 | 1008.6 |
| 20260508235553 | 75 | 0 | 0.0 | 3.0 | 0.00 | 0.00 | 0.00 | 83 | 1008.6 |
| 20260508235053 | 75 | 0 | 0.0 | 6.0 | 0.00 | 0.00 | 0.00 | 83 | 1008.6 |
| 20260508234609 | 75 | 0 | 1.0 | 6.0 | 0.00 | 0.00 | 0.00 | 82 | 1008.5 |
| 20260508234053 | 75 | 79 | 2.0 | 5.0 | 0.00 | 0.00 | 0.00 | 82 | 1008.6 |
| 20260508233553 | 75 | 0 | 0.0 | 3.0 | 0.00 | 0.00 | 0.00 | 82 | 1008.6 |
| 20260508233106 | 75 | 104 | 1.0 | 3.0 | 0.00 | 0.00 | 0.00 | 82 | 1008.6 |
| 20260508232554 | 75 | 0 | 0.0 | 4.0 | 0.00 | 0.00 | 0.00 | 82 | 1008.6 |
| 20260508232053 | 75 | 103 | 1.0 | 4.0 | 0.00 | 0.00 | 0.00 | 82 | 1008.5 |
| 20260508231606 | 75 | 122 | 0.0 | 4.0 | 0.00 | 0.00 | 0.00 | 82 | 1008.5 |
| 20260508231055 | 75 | 80 | 1.0 | 6.0 | 0.00 | 0.00 | 0.00 | 81 | 1008.6 |
| 20260508230553 | 75 | 0 | 1.0 | 6.0 | 0.00 | 0.00 | 0.00 | 81 | 1008.6 |
| 20260508230104 | 76 | 103 | 1.0 | 6.0 | 0.00 | 0.00 | 0.00 | 80 | 1008.5 |
| 20260508225553 | 76 | 94 | 1.0 | 6.0 | 0.00 | 0.00 | 0.00 | 79 | 1008.4 |
| 20260508225053 | 76 | 130 | 1.0 | 6.0 | 0.00 | 0.00 | 0.00 | 80 | 1008.6 |
| 20260508224604 | 75 | 107 | 0.0 | 6.0 | 0.00 | 0.00 | 0.00 | 81 | 1008.6 |
| 20260508224057 | 75 | 82 | 1.0 | 5.0 | 0.00 | 0.00 | 0.00 | 80 | 1008.7 |
| 20260508223557 | 75 | 96 | 1.0 | 6.0 | 0.00 | 0.00 | 0.00 | 80 | 1008.8 |
| 20260508223054 | 75 | 178 | 2.0 | 6.0 | 0.00 | 0.00 | 0.00 | 81 | 1008.8 |
| 20260508222554 | 75 | 0 | 1.0 | 4.0 | 0.00 | 0.00 | 0.00 | 80 | 1008.9 |
| 20260508222053 | 75 | 0 | 0.0 | 5.0 | 0.00 | 0.00 | 0.00 | 82 | 1009.0 |
| 20260508221551 | 74 | 0 | 1.0 | 5.0 | 0.00 | 0.00 | 0.00 | 81 | 1009.0 |
| 20260508221054 | 74 | 151 | 1.0 | 4.0 | 0.00 | 0.00 | 0.00 | 81 | 1009.0 |
| 20260508220554 | 74 | 134 | 1.0 | 5.0 | 0.00 | 0.00 | 0.00 | 82 | 1009.1 |
| 20260508220054 | 74 | 71 | 1.0 | 5.0 | 0.00 | 0.00 | 0.00 | 83 | 1009.1 |
| 20260508215553 | 73 | 113 | 0.0 | 3.0 | 0.00 | 0.00 | 0.00 | 83 | 1009.0 |
| 20260508215053 | 73 | 0 | 0.0 | 4.0 | 0.00 | 0.00 | 0.00 | 82 | 1009.2 |
| 20260508214608 | 73 | 0 | 1.0 | 4.0 | 0.00 | 0.00 | 0.00 | 82 | 1009.2 |
| 20260508214054 | 74 | 93 | 1.0 | 4.0 | 0.00 | 0.00 | 0.00 | 82 | 1009.2 |
| 20260508213553 | 74 | 98 | 0.0 | 3.0 | 0.00 | 0.00 | 0.00 | 82 | 1009.2 |
| 20260508213101 | 74 | 0 | 1.0 | 3.0 | 0.00 | 0.00 | 0.00 | 82 | 1009.3 |
| 20260508212558 | 74 | 0 | 1.0 | 3.0 | 0.00 | 0.00 | 0.00 | 82 | 1009.4 |
| 20260508212056 | 73 | 115 | 0.0 | 3.0 | 0.00 | 0.00 | 0.00 | 82 | 1009.4 |
| 20260508211559 | 73 | 0 | 1.0 | 3.0 | 0.00 | 0.00 | 0.00 | 82 | 1009.5 |
| 20260508211054 | 73 | 114 | 1.0 | 3.0 | 0.00 | 0.00 | 0.00 | 82 | 1009.6 |
| 20260508210557 | 73 | 0 | 0.0 | 3.0 | 0.00 | 0.00 | 0.00 | 82 | 1009.8 |
| 20260508210055 | 73 | 0 | 0.0 | 4.0 | 0.00 | 0.00 | 0.00 | 82 | 1009.8 |
| 20260508205553 | 73 | 162 | 1.0 | 4.0 | 0.00 | 0.00 | 0.00 | 82 | 1010.0 |
| 20260508205053 | 74 | 125 | 1.0 | 4.0 | 0.00 | 0.00 | 0.00 | 82 | 1010.0 |
| 20260508204614 | 73 | 128 | 0.0 | 6.0 | 0.00 | 0.00 | 0.00 | 82 | 1010.0 |
| 20260508204056 | 73 | 0 | 0.0 | 6.0 | 0.00 | 0.00 | 0.00 | 83 | 1010.0 |
| 20260508203553 | 73 | 122 | 1.0 | 6.0 | 0.00 | 0.00 | 0.00 | 82 | 1009.9 |
| 20260508203058 | 73 | 211 | 2.0 | 6.0 | 0.00 | 0.00 | 0.00 | 81 | 1009.9 |
| 20260508202553 | 73 | 115 | 0.0 | 8.0 | 0.00 | 0.00 | 0.00 | 82 | 1009.9 |
| 20260508202053 | 73 | 138 | 2.0 | 8.0 | 0.00 | 0.00 | 0.00 | 81 | 1009.9 |
| 20260508201610 | 74 | 136 | 2.0 | 8.0 | 0.00 | 0.00 | 0.00 | 80 | 1009.9 |
| 20260508201055 | 74 | 123 | 0.0 | 4.0 | 0.00 | 0.00 | 0.00 | 81 | 1010.0 |
| 20260508200553 | 74 | 100 | 0.0 | 5.0 | 0.00 | 0.00 | 0.00 | 81 | 1010.0 |
| 20260508200115 | 73 | 0 | 1.0 | 6.0 | 0.00 | 0.00 | 0.00 | 82 | 1010.0 |
| 20260508195553 | 73 | 78 | 2.0 | 6.0 | 0.00 | 0.00 | 0.00 | 82 | 1010.1 |
| 20260508195054 | 73 | 80 | 1.0 | 6.0 | 0.00 | 0.00 | 0.00 | 82 | 1010.2 |
| 20260508194553 | 73 | 62 | 1.0 | 6.0 | 0.00 | 0.00 | 0.00 | 82 | 1010.2 |
| 20260508194054 | 73 | 69 | 0.0 | 5.0 | 0.00 | 0.00 | 0.00 | 82 | 1010.2 |
| 20260508193553 | 72 | 52 | 2.0 | 5.0 | 0.00 | 0.00 | 0.00 | 82 | 1010.2 |
| 20260508193057 | 72 | 0 | 1.0 | 4.0 | 0.00 | 0.00 | 0.00 | 83 | 1010.2 |
| 20260508192553 | 72 | 107 | 1.0 | 5.0 | 0.00 | 0.00 | 0.00 | 83 | 1010.4 |
| 20260508192054 | 72 | 127 | 1.0 | 5.0 | 0.00 | 0.00 | 0.00 | 83 | 1010.4 |
| 20260508191552 | 72 | 130 | 1.0 | 5.0 | 0.00 | 0.00 | 0.00 | 82 | 1010.5 |
| 20260508191053 | 72 | 82 | 1.0 | 4.0 | 0.00 | 0.00 | 0.00 | 82 | 1010.5 |
| 20260508190553 | 72 | 113 | 1.0 | 5.0 | 0.00 | 0.00 | 0.00 | 82 | 1010.5 |
| 20260508185553 | 72 | 116 | 1.0 | 4.0 | 0.00 | 0.00 | 0.00 | 82 | 1010.6 |
| 20260508185053 | 72 | 117 | 1.0 | 4.0 | 0.00 | 0.00 | 0.00 | 82 | 1010.6 |
| 20260508184557 | 72 | 93 | 0.0 | 4.0 | 0.00 | 0.00 | 0.00 | 82 | 1010.7 |
| 20260508184057 | 72 | 55 | 1.0 | 5.0 | 0.00 | 0.00 | 0.00 | 83 | 1010.7 |
| 20260508183553 | 72 | 0 | 1.0 | 5.0 | 0.00 | 0.00 | 0.00 | 83 | 1010.8 |
| 20260508183055 | 72 | 142 | 1.0 | 6.0 | 0.00 | 0.00 | 0.00 | 83 | 1010.8 |
| 20260508182553 | 71 | 137 | 0.0 | 6.0 | 0.00 | 0.00 | 0.00 | 82 | 1010.9 |
| 20260508182053 | 71 | 142 | 2.0 | 6.0 | 0.00 | 0.00 | 0.00 | 83 | 1011.0 |
| 20260508181615 | 71 | 128 | 1.0 | 4.0 | 0.00 | 0.00 | 0.00 | 82 | 1011.2 |
| 20260508181055 | 70 | 119 | 0.0 | 3.0 | 0.00 | 0.00 | 0.00 | 84 | 1011.2 |
| 20260508180555 | 70 | 119 | 1.0 | 3.0 | 0.00 | 0.00 | 0.00 | 83 | 1011.4 |
| 20260508180110 | 70 | 0 | 0.0 | 3.0 | 0.00 | 0.00 | 0.00 | 84 | 1011.6 |
| 20260508175553 | 70 | 0 | 1.0 | 3.0 | 0.00 | 0.00 | 0.00 | 83 | 1011.6 |
| 20260508175054 | 70 | 0 | 0.0 | 4.0 | 0.00 | 0.00 | 0.00 | 83 | 1011.6 |
| 20260508174603 | 70 | 0 | 1.0 | 4.0 | 0.00 | 0.00 | 0.00 | 84 | 1011.7 |
| 20260508174057 | 70 | 115 | 1.0 | 4.0 | 0.00 | 0.00 | 0.00 | 84 | 1011.7 |
| 20260508173553 | 69 | 0 | 0.0 | 4.0 | 0.00 | 0.00 | 0.00 | 84 | 1011.7 |
| 20260508173056 | 69 | 117 | 1.0 | 4.0 | 0.00 | 0.00 | 0.00 | 83 | 1011.8 |
| 20260508172556 | 69 | 0 | 0.0 | 2.0 | 0.00 | 0.00 | 0.00 | 84 | 1011.8 |
| 20260508172054 | 69 | 0 | 0.0 | 3.0 | 0.00 | 0.00 | 0.00 | 85 | 1011.8 |
| 20260508171554 | 69 | 105 | 1.0 | 3.0 | 0.00 | 0.00 | 0.00 | 85 | 1011.8 |
| 20260508171052 | 69 | 0 | 0.0 | 4.0 | 0.00 | 0.00 | 0.00 | 85 | 1011.7 |
| 20260508170554 | 68 | 105 | 1.0 | 4.0 | 0.00 | 0.00 | 0.00 | 85 | 1011.7 |
| 20260508170059 | 68 | 0 | 0.0 | 1.0 | 0.00 | 0.00 | 0.00 | 85 | 1011.8 |
| 20260508165554 | 68 | 0 | 0.0 | 3.0 | 0.00 | 0.00 | 0.00 | 85 | 1011.8 |
| 20260508165053 | 68 | 73 | 0.0 | 3.0 | 0.00 | 0.00 | 0.00 | 85 | 1011.9 |